Torna al catalogo

NSS 806

INTELSAT 806

AttivoComunicazioniGEO
NORAD 25239·PAYLOAD·🇱🇺 Luxembourg

Lanciato Feb 28, 1998 da Cape Canaveral Space Force Station

Loading…

TLE

AggiornatoSource: Space-Track

Epoca: Sep 14, 2026, 12:27 UTC

1 25239U 98014A   26257.51880200  .00000048  00000-0  00000-0 0  9991
2 25239   7.3452  68.6307 0008554 117.3167  69.9619  0.99075306 47855

Traccia NSS 806 in tempo reale con AllMySat

Download on the App Store